ROMMA est une association bénévole à but non lucratif. Votre soutien est indispensable : ADHERER à ROMMA ou FAIRE un DON

Le Versoud - (38, Isère)

Vallée du Grésivaudan (220 m)   Longitude: 05° 51' 44" E   Latitude: 45° 13' 06" N Station partenaire n°6
 

Détail journalier du     <<     >>

Température Humidité Pression Vent Dir Rafale Dir. rafale Ensol.
Heure (°C) (%) (hPa) (km/h) (km/h) (min)
01:00 16.183101700---0
02:00 15.188101700---0
03:00 14.490101700---0
04:00 13.891101700---0
05:00 13.391101700---0
06:00 12.992101700---0
07:00 13.093101700---5
08:00 16.182101700---60
09:00 17.676101700---60
10:00 19.368101702ENE60
11:00 22.060101602ENE60
12:00 23.657101602ESE60
13:00 25.453101502ESE60
14:00 25.152101506NNE60
15:00 26.349101406NNO60
16:00 27.847101405NNO60
17:00 28.7471013013N60
18:00 29.34610121N11NNE60
19:00 28.15110133N19NE50
20:00 27.05710131NE19NE5
21:00 20.38110157SE47SSE15
22:00 19.68810151---19SE0
23:00 18.988101502SO0
minuit 17.989101600---0

Graphique du 17-06-2019

 

Serveur OMMA